Location: ????????
(60.4333°N, 46.4710°E)
Time: 19:00:24
(UTC+00:00)

Resurs 01 Rocket - Pass Details

Date: 25 November 2020
Orbit: 634 x 644 km, 98.0° (Epoch: 17 January)

Event Time Altitude Azimuth Distance (km) Brightness Sun altitude
Exits shadow 16:47:08 11° 347° (NNW) 1,978 4.4 -33.4°
Drops below altitude 10° 16:47:13 11° 347° (NNW) 2,010 4.5 -33.5°
Sets 16:49:33 0° 344° (NNW) 2,965 5.5 -33.7°
